STARLINK-4660, 53609

Orbit data source: Space-Track

STARLINK-4660, 53609 is a payload satellite owned by SpaceX/Seattle (US) in LEO that was launched on Sun, 28 Aug 2022 UTC via an FALCON 9 launch vehicle from the Air Force Eastern Test Range (AFETR). Payload-class satellites include a variety of spacecraft equipped with specific instruments for various scientific and technological missions. These include communications satellites like Starlink; space stations such as the ISS; scientific satellites like the Hubble; Earth observation satellites from companies like Planet Labs, Umbra, and HawkEye 360; GPS; miniature CubeSats for education and research; and military/defense satellites.

Loading next visibility...
Identifier
53609, 2022-104X
Orbit
LEO
Country
Flag of USUS
Related business
Manufacturer
SpaceX/Seattle
Mission
Operational Commercial Communications
Bus & Motor
STARLINK, Unknown motor
Mass
300 kg wet, ~290 kg dry
Launch date (UTC)
2022-08-28 (3 years ago)
Launch vehicle
FALCON 9
Launch site
Air Force Eastern Test Range (AFETR)
Object type
Payload
Rocket body
Debris
Shape & HBR
Box + 1 Pan, 10.1 m
Radar Cross Section
13.562 m², Large (>1 m²)

Expand to show TLE details & history
Last TLE update: 1 day ago

TLE from 1 day ago
0 STARLINK-4660
1 53609U 22104X   25286.40041103 -.00000197  00000-0  57243-5 0  9992
2 53609  53.2178 180.0289 0001502  87.9124 272.2041 15.08840124173459
Epoch: 2025-10-13T09:36Z
TLE epoch observation values (Epoch: 2025-10-13T09:36:35.512Z)
Latitude
0.00002°
Longitude
13.67722°
Altitude
540.601 km
Speed
7.593 km/s
True Right ascension
12h 00m 06s
True Declination
0° 00' 00"
Sunlit
Object was in daylight at epoch
Visualization orbit readout
Latitude
Unknown
Longitude
Unknown
Altitude
Unknown
Speed
Unknown
Apparent Right ascension
Unknown
Apparent Declination
Unknown
Sunlit
N/A
Visualization observer readout
Local Sidereal Time
13:50:14
Azimuth
Unknown
Elevation
Unknown
Doppler factor
Unknown
Orbital elements
Apogee altitude
541.027 km
Perigee altitude
538.949 km
Semi-major axis
6,918.125 km
Eccentricity
0.00015
Inclination
53.2178°
RAAN
180.0289°
Arg. of periapsis
87.9124°
True anomaly
272.1869°
Mean anomaly
272.2041°
Eccentric anomaly
272.1955°
Mean motion
3.7719 °/min
Orbital period
95.44 mins
BSTAR
0.0000057243
Loading maneuver chart data...
Computing Atmospheric mass density...
Loading historical data...
Loading historical data...
Loading historical data...
Loading historical data...
Loading historical data...
Loading historical data...
Loading historical data...

Documentation

Showing up to 5 results
|